Tracking 19644 objects as of 26-Apr-2019
HD Live streaming from Space Station
objects crossing your sky now

EKRAN 1

Track EKRAN 1 now!
EKRAN 1 is classified as:


NORAD ID: 9503
Int'l Code: 1976-107A
Perigee: 35,513.7 km
Apogee: 36,055.4 km
Inclination: 9.9 °
Period: 1,435.6 minutes
Semi major axis: 42155 km
RCS: 3.5481 m2 (large)
Launch date: October 26, 1976
Source: Commonwealth of Independent States (former USSR) (CIS)
Launch site: TYURATAM MISSILE AND SPACE COMPLEX (TTMTR)
aabbcc
Your satellite tracking list
Your tracking list is empty




NASA's NSSDC Master Catalog

Two Line Element Set (TLE):
1  9503U 76107A   19115.50246966 -.00000279 +00000-0 +00000-0 0  9992
2  9503 009.9211 305.9992 0064252 105.8696 074.5869 01.00304733172349
Source of the keplerian elements: AFSPC